Location: GMARS
(34.2910°N, 116.3838°W)
Time: 09:38:00
(UTC-08:00)

Envisat - Pass Details

Date: 26 October 2019
Orbit: 764 x 766 km, 98.1° (Epoch: 17 November)

Event Time Altitude Azimuth Distance (km) Brightness Sun altitude
Rises 20:04:41 0° 207° (SSW) 3,216 6.5 -26.7°
Reaches altitude 10° 20:07:48 10° 227° (SW) 2,295 6.0 -27.3°
Maximum altitude 20:10:59 17° 267° (W) 1,877 5.8 -28.0°
Drops below altitude 10° 20:14:11 10° 306° (NW) 2,303 6.2 -28.6°
Sets 20:17:20 0° 327° (NNW) 3,234 6.7 -29.3°
